Weather History for KPOF - January, 2013

Change the Weather History Date:

Thursday, January 17, 2013

  Actual Average (KCGI) Record (KCGI)
Temperature  
Mean Temperature 36 °F 33 °F  
Max Temperature 46 °F 42 °F 65 °F (1996)
Min Temperature 26 °F 24 °F -16 °F (1977)
Degree Days  
Heating Degree Days 29 32  
Month to date heating degree days 544  
Since 1 July heating degree days 2295  
Cooling Degree Days 0 0  
Month to date cooling degree days 0  
Year to date cooling degree days 0  
Moisture  
Dew Point 26 °F    
Average Humidity 69    
Maximum Humidity 84    
Minimum Humidity 53    
Precipitation  
Precipitation 0.00 in 0.11 in 1.50 in (1969)
Month to date precipitation 1.89  
Year to date precipitation 1.89  
Sea Level Pressure  
Sea Level Pressure 30.32 in    
Wind  
Wind Speed 5 mph (NNW)    
Max Wind Speed 23 mph    
Max Gust Speed 28 mph    
Visibility 10 miles    
Events      
T = Trace of Precipitation, MM = Missing Value Source: NWS Daily Summary

Daily Weather History Graph

Daily Weather History Graph

Search for Another Location

Airport or City:

Trip Planner

Search our weather history database for the weather conditions in past years. The results will help you decide how hot, cold, wet, or windy it might be!

Date:

Astronomy

Jan. 17, 2013 Rise Set
Actual Time 7:12 AM CST 5:11 PM CST
Civil Twilight 6:44 AM CST 5:39 PM CST
Nautical Twilight 6:12 AM CST 6:10 PM CST
Astronomical Twilight 5:41 AM CST 6:41 PM CST
Moon 10:30 AM CST (1/17) 11:50 PM CST (1/17)
Length of Visible Light 10h 55m
Length of Day
9h 58m
Waxing Crescent, 38% of the Moon is Illuminated
Jan 17
Waxing Crescent
Jan 18
First Quarter
Jan 26
Full
Feb 3
Last Quarter
Feb 10
New

Hourly Weather History & Observations

Time (CST) Temp. Windchill Dew Point Humidity Pressure Visibility Wind Dir Wind Speed Gust Speed Precip Events Conditions
12:53 AM 26.1 °F - 21.9 °F 84% 30.18 in 10.0 mi Calm Calm - N/A   Clear
1:53 AM 26.1 °F - 21.9 °F 84% 30.19 in 10.0 mi Calm Calm - N/A   Clear
2:53 AM 27.0 °F - 21.0 °F 78% 30.19 in 10.0 mi Calm Calm - N/A   Clear
3:53 AM 26.1 °F - 21.0 °F 81% 30.17 in 10.0 mi Calm Calm - N/A   Clear
4:53 AM 30.0 °F 22.4 °F 21.9 °F 72% 30.16 in 10.0 mi NW 8.1 mph - N/A   Clear
5:53 AM 30.0 °F 24.1 °F 23.0 °F 75% 30.18 in 10.0 mi NNW 5.8 mph - N/A   Clear
6:53 AM 30.9 °F 26.2 °F 21.9 °F 69% 30.21 in 10.0 mi NNW 4.6 mph - N/A   Clear
7:53 AM 32.0 °F 28.7 °F 23.0 °F 69% 30.25 in 10.0 mi NW 3.5 mph - N/A   Clear
8:53 AM 36.0 °F 33.3 °F 26.1 °F 67% 30.27 in 10.0 mi NNW 3.5 mph - N/A   Overcast
9:53 AM 39.0 °F 32.8 °F 28.0 °F 65% 30.30 in 10.0 mi North 9.2 mph - N/A   Overcast
10:53 AM 42.1 °F 36.1 °F 30.0 °F 62% 30.30 in 10.0 mi North 10.4 mph - N/A   Mostly Cloudy
11:53 AM 46.0 °F 39.3 °F 33.1 °F 61% 30.28 in 10.0 mi NNW 16.1 mph - N/A   Clear
12:20 PM 46.4 °F 41.1 °F 33.8 °F 62% 30.27 in 10.0 mi North 11.5 mph - N/A   Mostly Cloudy
12:40 PM 46.4 °F 39.2 °F 33.8 °F 62% 30.26 in 10.0 mi North 18.4 mph - N/A   Scattered Clouds
12:53 PM 46.0 °F 39.0 °F 33.1 °F 61% 30.28 in 10.0 mi NW 17.3 mph - N/A   Clear
1:53 PM 45.0 °F 37.4 °F 32.0 °F 60% 30.30 in 10.0 mi NNW 18.4 mph - N/A   Partly Cloudy
2:53 PM 44.1 °F 35.2 °F 28.9 °F 55% 30.32 in 10.0 mi NNW 23.0 mph 27.6 mph N/A   Clear
3:53 PM 45.0 °F 39.3 °F 28.9 °F 53% 30.36 in 10.0 mi NW 11.5 mph - N/A   Clear
4:53 PM 43.0 °F 40.3 °F 28.0 °F 56% 30.38 in 10.0 mi WNW 4.6 mph - N/A   Clear
5:53 PM 39.9 °F 37.8 °F 26.1 °F 58% 30.41 in 10.0 mi West 3.5 mph - N/A   Clear
6:53 PM 35.1 °F - 27.0 °F 72% 30.45 in 10.0 mi Calm Calm - N/A   Clear
7:53 PM 32.0 °F - 26.1 °F 79% 30.47 in 10.0 mi Calm Calm - N/A   Clear
8:53 PM 32.0 °F 26.4 °F 25.0 °F 75% 30.50 in 10.0 mi North 5.8 mph - N/A   Clear
9:53 PM 30.9 °F - 25.0 °F 79% 30.51 in 10.0 mi Calm Calm - N/A   Clear
10:53 PM 30.0 °F - 25.0 °F 82% 30.51 in 10.0 mi Calm Calm - N/A   Clear
11:53 PM 28.9 °F 25.2 °F 23.0 °F 78% 30.52 in 10.0 mi North 3.5 mph - N/A   Clear